| time (UTC) | temp F | wind direction | speed MPH | gust MPH | rain 1hr in | rain 24hr in | rain mn in | humidity % | barometer mb |
| 20260509201516 | 84 | 102 | 2.0 | 7.0 | 0.00 | 0.22 | 0.00 | 40 | 1009.7 |
| 20260509201012 | 84 | 159 | 2.0 | 7.0 | 0.00 | 0.22 | 0.00 | 40 | 1009.6 |
| 20260509200507 | 85 | 148 | 1.0 | 5.0 | 0.00 | 0.22 | 0.00 | 45 | 1009.8 |
| 20260509200024 | 84 | 91 | 2.0 | 5.0 | 0.00 | 0.22 | 0.00 | 40 | 1009.9 |
| 20260509195510 | 83 | 155 | 2.0 | 5.0 | 0.00 | 0.22 | 0.00 | 44 | 1009.9 |
| 20260509195008 | 84 | 115 | 2.0 | 6.0 | 0.00 | 0.22 | 0.00 | 42 | 1010.1 |
| 20260509194514 | 83 | 78 | 2.0 | 6.0 | 0.00 | 0.22 | 0.00 | 43 | 1010.2 |
| 20260509194006 | 84 | 82 | 2.0 | 8.0 | 0.00 | 0.22 | 0.00 | 44 | 1010.2 |
| 20260509193507 | 84 | 109 | 3.0 | 8.0 | 0.00 | 0.22 | 0.00 | 42 | 1010.2 |
| 20260509193014 | 84 | 88 | 3.0 | 5.0 | 0.00 | 0.22 | 0.00 | 41 | 1010.2 |
| 20260509192506 | 83 | 236 | 1.0 | 5.0 | 0.00 | 0.22 | 0.00 | 41 | 1010.2 |
| 20260509192009 | 83 | 279 | 1.0 | 7.0 | 0.00 | 0.22 | 0.00 | 44 | 1010.3 |
| 20260509191520 | 83 | 158 | 1.0 | 7.0 | 0.00 | 0.22 | 0.00 | 42 | 1010.3 |
| 20260509191007 | 83 | 142 | 3.0 | 7.0 | 0.00 | 0.22 | 0.00 | 43 | 1010.4 |
| 20260509190506 | 84 | 90 | 2.0 | 5.0 | 0.00 | 0.22 | 0.00 | 46 | 1010.4 |
| 20260509190040 | 83 | 63 | 2.0 | 5.0 | 0.00 | 0.22 | 0.00 | 43 | 1010.4 |
| 20260509185513 | 83 | 132 | 2.0 | 5.0 | 0.00 | 0.22 | 0.00 | 44 | 1010.4 |
| 20260509185004 | 82 | 207 | 1.0 | 5.0 | 0.00 | 0.22 | 0.00 | 45 | 1010.5 |
| 20260509184518 | 81 | 217 | 2.0 | 6.0 | 0.00 | 0.22 | 0.00 | 41 | 1010.6 |
| 20260509184004 | 82 | 274 | 3.0 | 7.0 | 0.00 | 0.22 | 0.00 | 42 | 1010.6 |
| 20260509183507 | 82 | 206 | 3.0 | 6.0 | 0.00 | 0.22 | 0.00 | 41 | 1010.7 |
| 20260509183025 | 81 | 119 | 3.0 | 6.0 | 0.00 | 0.22 | 0.00 | 48 | 1010.7 |
| 20260509182506 | 82 | 169 | 2.0 | 6.0 | 0.00 | 0.22 | 0.00 | 46 | 1010.8 |
| 20260509182007 | 81 | 158 | 1.0 | 5.0 | 0.00 | 0.22 | 0.00 | 47 | 1010.8 |
| 20260509181524 | 81 | 238 | 1.0 | 4.0 | 0.00 | 0.22 | 0.00 | 46 | 1010.9 |
| 20260509181015 | 80 | 317 | 1.0 | 4.0 | 0.00 | 0.22 | 0.00 | 46 | 1011.0 |
| 20260509180508 | 80 | 284 | 2.0 | 4.0 | 0.00 | 0.22 | 0.00 | 44 | 1011.1 |
| 20260509180025 | 80 | 234 | 2.0 | 6.0 | 0.00 | 0.22 | 0.00 | 47 | 1011.2 |
| 20260509175508 | 80 | 245 | 3.0 | 6.0 | 0.00 | 0.22 | 0.00 | 49 | 1011.3 |
| 20260509175003 | 80 | 256 | 3.0 | 5.0 | 0.00 | 0.22 | 0.00 | 49 | 1011.4 |
| 20260509174516 | 80 | 209 | 2.0 | 6.0 | 0.00 | 0.22 | 0.00 | 51 | 1011.4 |
| 20260509174009 | 79 | 302 | 2.0 | 4.0 | 0.00 | 0.22 | 0.00 | 50 | 1011.5 |
| 20260509173507 | 80 | 228 | 1.0 | 4.0 | 0.00 | 0.22 | 0.00 | 53 | 1011.6 |
| 20260509173020 | 79 | 252 | 1.0 | 4.0 | 0.00 | 0.22 | 0.00 | 58 | 1011.8 |
| 20260509172507 | 78 | 286 | 2.0 | 4.0 | 0.00 | 0.22 | 0.00 | 55 | 1011.9 |
| 20260509172007 | 79 | 215 | 1.0 | 4.0 | 0.00 | 0.22 | 0.00 | 60 | 1012.0 |
| 20260509171526 | 79 | 98 | 1.0 | 5.0 | 0.00 | 0.22 | 0.00 | 56 | 1012.0 |
| 20260509171010 | 79 | 81 | 2.0 | 5.0 | 0.00 | 0.22 | 0.00 | 56 | 1011.9 |
| 20260509170510 | 78 | 175 | 1.0 | 3.0 | 0.00 | 0.22 | 0.00 | 62 | 1012.0 |
| 20260509170033 | 78 | 290 | 1.0 | 4.0 | 0.00 | 0.22 | 0.00 | 59 | 1012.1 |
| 20260509165506 | 78 | 259 | 1.0 | 4.0 | 0.00 | 0.22 | 0.00 | 61 | 1012.1 |
| 20260509165005 | 77 | 250 | 2.0 | 5.0 | 0.00 | 0.22 | 0.00 | 64 | 1012.1 |
| 20260509164514 | 77 | 282 | 1.0 | 5.0 | 0.00 | 0.22 | 0.00 | 67 | 1012.2 |
| 20260509164011 | 76 | 244 | 2.0 | 5.0 | 0.00 | 0.22 | 0.00 | 68 | 1012.2 |
| 20260509163508 | 76 | 295 | 2.0 | 5.0 | 0.00 | 0.22 | 0.00 | 67 | 1012.2 |
| 20260509163023 | 76 | 150 | 2.0 | 5.0 | 0.00 | 0.22 | 0.00 | 67 | 1012.2 |
| 20260509162512 | 77 | 175 | 2.0 | 5.0 | 0.00 | 0.22 | 0.00 | 68 | 1012.2 |
| 20260509162012 | 76 | 153 | 2.0 | 5.0 | 0.00 | 0.22 | 0.00 | 68 | 1012.1 |
| 20260509161526 | 77 | 207 | 0.0 | 4.0 | 0.00 | 0.22 | 0.00 | 67 | 1012.2 |
| 20260509161012 | 75 | 169 | 0.0 | 7.0 | 0.00 | 0.22 | 0.00 | 71 | 1012.3 |
| 20260509160508 | 74 | 240 | 2.0 | 7.0 | 0.00 | 0.22 | 0.00 | 71 | 1012.3 |
| 20260509160017 | 74 | 240 | 2.0 | 7.0 | 0.00 | 0.22 | 0.00 | 72 | 1012.3 |
| 20260509155505 | 73 | 263 | 2.0 | 5.0 | 0.00 | 0.22 | 0.00 | 75 | 1012.1 |
| 20260509155011 | 73 | 250 | 2.0 | 6.0 | 0.00 | 0.22 | 0.00 | 73 | 1012.2 |
| 20260509154518 | 73 | 169 | 2.0 | 6.0 | 0.00 | 0.22 | 0.00 | 75 | 1012.1 |
| 20260509154006 | 73 | 173 | 2.0 | 5.0 | 0.00 | 0.22 | 0.00 | 75 | 1012.1 |
| 20260509153507 | 73 | 204 | 1.0 | 4.0 | 0.00 | 0.22 | 0.00 | 76 | 1012.0 |
| 20260509153024 | 72 | 221 | 2.0 | 5.0 | 0.00 | 0.22 | 0.00 | 79 | 1012.1 |
| 20260509152507 | 72 | 219 | 1.0 | 6.0 | 0.00 | 0.22 | 0.00 | 79 | 1012.1 |
| 20260509152010 | 71 | 223 | 3.0 | 6.0 | 0.00 | 0.22 | 0.00 | 78 | 1012.2 |
| 20260509151527 | 71 | 134 | 3.0 | 6.0 | 0.00 | 0.22 | 0.00 | 79 | 1012.2 |
| 20260509151010 | 71 | 292 | 1.0 | 6.0 | 0.00 | 0.22 | 0.00 | 79 | 1012.2 |
| 20260509150511 | 71 | 157 | 1.0 | 6.0 | 0.00 | 0.22 | 0.00 | 79 | 1012.2 |
| 20260509150013 | 71 | 155 | 1.0 | 6.0 | 0.00 | 0.22 | 0.00 | 79 | 1012.2 |
| 20260509145505 | 71 | 148 | 1.0 | 3.0 | 0.00 | 0.22 | 0.00 | 76 | 1012.1 |
| 20260509145013 | 72 | 239 | 0.0 | 4.0 | 0.00 | 0.22 | 0.00 | 78 | 1012.1 |
| 20260509144522 | 71 | 135 | 1.0 | 4.0 | 0.00 | 0.22 | 0.00 | 79 | 1011.9 |
| 20260509144010 | 70 | 82 | 1.0 | 4.0 | 0.00 | 0.22 | 0.00 | 82 | 1011.8 |
| 20260509143507 | 70 | 179 | 1.0 | 4.0 | 0.00 | 0.22 | 0.00 | 83 | 1011.8 |
| 20260509143026 | 69 | 189 | 1.0 | 4.0 | 0.00 | 0.22 | 0.00 | 82 | 1011.9 |
| 20260509142509 | 70 | 232 | 2.0 | 4.0 | 0.00 | 0.22 | 0.00 | 82 | 1011.9 |
| 20260509142012 | 70 | 17 | 0.0 | 2.0 | 0.00 | 0.22 | 0.00 | 83 | 1012.0 |
| 20260509141535 | 69 | 221 | 1.0 | 2.0 | 0.00 | 0.22 | 0.00 | 82 | 1012.0 |
| 20260509141007 | 70 | 49 | 0.0 | 0.0 | 0.00 | 0.22 | 0.00 | 81 | 1012.0 |
| 20260509140506 | 68 | 49 | 0.0 | 0.0 | 0.00 | 0.22 | 0.00 | 85 | 1012.0 |
| 20260509140028 | 68 | 49 | 0.0 | 2.0 | 0.00 | 0.22 | 0.00 | 84 | 1011.9 |
| 20260509135507 | 67 | 49 | 0.0 | 2.0 | 0.00 | 0.22 | 0.00 | 84 | 1011.9 |
| 20260509135007 | 66 | 49 | 0.0 | 0.0 | 0.00 | 0.22 | 0.00 | 84 | 1011.9 |
| 20260509134527 | 66 | 49 | 0.0 | 0.0 | 0.00 | 0.22 | 0.00 | 86 | 1011.9 |
| 20260509134006 | 65 | 49 | 0.0 | 0.0 | 0.00 | 0.22 | 0.00 | 86 | 1011.7 |
| 20260509133507 | 65 | 49 | 0.0 | 0.0 | 0.00 | 0.22 | 0.00 | 84 | 1011.7 |
| 20260509133033 | 66 | 49 | 0.0 | 2.0 | 0.00 | 0.22 | 0.00 | 88 | 1011.7 |
| 20260509132510 | 65 | 49 | 0.0 | 2.0 | 0.00 | 0.22 | 0.00 | 88 | 1011.7 |
| 20260509132009 | 64 | 49 | 0.0 | 1.0 | 0.00 | 0.22 | 0.00 | 89 | 1011.5 |
| 20260509131546 | 64 | 49 | 0.0 | 0.0 | 0.00 | 0.22 | 0.00 | 91 | 1011.5 |
| 20260509131010 | 62 | 49 | 0.0 | 0.0 | 0.00 | 0.22 | 0.00 | 92 | 1011.4 |
| 20260509130507 | 62 | 49 | 0.0 | 0.0 | 0.00 | 0.22 | 0.00 | 91 | 1011.3 |
| 20260509130033 | 62 | 49 | 0.0 | 0.0 | 0.00 | 0.22 | 0.00 | 93 | 1011.2 |
| 20260509125510 | 61 | 49 | 0.0 | 0.0 | 0.00 | 0.22 | 0.00 | 94 | 1011.1 |
| 20260509125012 | 60 | 49 | 0.0 | 0.0 | 0.00 | 0.22 | 0.00 | 93 | 1011.1 |
| 20260509124531 | 61 | 49 | 0.0 | 0.0 | 0.00 | 0.22 | 0.00 | 94 | 1010.9 |
| 20260509124011 | 60 | 49 | 0.0 | 0.0 | 0.00 | 0.22 | 0.00 | 94 | 1010.9 |
| 20260509123507 | 59 | 49 | 0.0 | 0.0 | 0.00 | 0.22 | 0.00 | 94 | 1010.9 |
| 20260509123030 | 59 | 49 | 0.0 | 0.0 | 0.00 | 0.22 | 0.00 | 94 | 1010.9 |
| 20260509122511 | 59 | 49 | 0.0 | 0.0 | 0.00 | 0.22 | 0.00 | 94 | 1010.9 |
| 20260509122007 | 58 | 49 | 0.0 | 0.0 | 0.00 | 0.22 | 0.00 | 94 | 1010.8 |
| 20260509121531 | 58 | 49 | 0.0 | 0.0 | 0.00 | 0.22 | 0.00 | 94 | 1010.8 |
| 20260509121010 | 58 | 49 | 0.0 | 0.0 | 0.00 | 0.22 | 0.00 | 93 | 1010.8 |
| 20260509120510 | 58 | 49 | 0.0 | 0.0 | 0.00 | 0.22 | 0.00 | 93 | 1010.8 |
| 20260509120022 | 58 | 49 | 0.0 | 0.0 | 0.00 | 0.22 | 0.00 | 93 | 1010.6 |
| 20260509115507 | 58 | 49 | 0.0 | 2.0 | 0.00 | 0.22 | 0.00 | 93 | 1010.4 |
| 20260509115010 | 58 | 49 | 0.0 | 2.0 | 0.00 | 0.22 | 0.00 | 93 | 1010.3 |
| 20260509114526 | 58 | 49 | 0.0 | 2.0 | 0.00 | 0.22 | 0.00 | 93 | 1010.3 |
| 20260509114009 | 58 | 49 | 0.0 | 2.0 | 0.00 | 0.22 | 0.00 | 93 | 1010.3 |
| 20260509113512 | 58 | 49 | 0.0 | 2.0 | 0.00 | 0.22 | 0.00 | 93 | 1010.2 |
| 20260509113028 | 58 | 49 | 0.0 | 2.0 | 0.00 | 0.22 | 0.00 | 93 | 1010.2 |
| 20260509112509 | 58 | 49 | 0.0 | 2.0 | 0.00 | 0.22 | 0.00 | 93 | 1010.1 |
| 20260509112010 | 58 | 49 | 0.0 | 2.0 | 0.00 | 0.22 | 0.00 | 93 | 1010.0 |
| 20260509111527 | 58 | 49 | 0.0 | 2.0 | 0.00 | 0.22 | 0.00 | 93 | 1010.0 |
| 20260509111010 | 58 | 49 | 0.0 | 2.0 | 0.00 | 0.22 | 0.00 | 93 | 1009.9 |
| 20260509110506 | 58 | 49 | 0.0 | 2.0 | 0.00 | 0.22 | 0.00 | 93 | 1009.9 |
| 20260509110026 | 58 | 49 | 0.0 | 2.0 | 0.00 | 0.22 | 0.00 | 93 | 1009.9 |
| 20260509105510 | 58 | 49 | 0.0 | 2.0 | 0.00 | 0.22 | 0.00 | 93 | 1009.9 |
| 20260509105014 | 58 | 49 | 0.0 | 2.0 | 0.00 | 0.22 | 0.00 | 93 | 1009.8 |
| 20260509104529 | 58 | 49 | 0.0 | 2.0 | 0.00 | 0.22 | 0.00 | 93 | 1009.8 |
| 20260509104010 | 58 | 49 | 0.0 | 0.0 | 0.00 | 0.22 | 0.00 | 94 | 1009.9 |
| 20260509103510 | 58 | 49 | 0.0 | 0.0 | 0.00 | 0.22 | 0.00 | 93 | 1009.9 |
| 20260509103030 | 58 | 49 | 0.0 | 0.0 | 0.00 | 0.22 | 0.00 | 93 | 1010.0 |
| 20260509102510 | 58 | 49 | 0.0 | 1.0 | 0.00 | 0.22 | 0.00 | 93 | 1010.0 |
| 20260509102009 | 58 | 49 | 0.0 | 1.0 | 0.00 | 0.22 | 0.00 | 93 | 1010.2 |
| 20260509101523 | 58 | 49 | 0.0 | 1.0 | 0.00 | 0.22 | 0.00 | 93 | 1010.3 |
| 20260509101008 | 58 | 49 | 0.0 | 0.0 | 0.00 | 0.22 | 0.00 | 93 | 1010.4 |
| 20260509100507 | 58 | 49 | 0.0 | 0.0 | 0.00 | 0.22 | 0.00 | 93 | 1010.3 |
| 20260509100024 | 58 | 49 | 0.0 | 0.0 | 0.00 | 0.22 | 0.00 | 93 | 1010.3 |
| 20260509095507 | 58 | 49 | 0.0 | 0.0 | 0.00 | 0.22 | 0.00 | 93 | 1010.3 |
| 20260509095007 | 58 | 49 | 0.0 | 0.0 | 0.00 | 0.22 | 0.00 | 93 | 1010.4 |
| 20260509094526 | 58 | 49 | 0.0 | 0.0 | 0.00 | 0.22 | 0.00 | 93 | 1010.4 |
| 20260509094011 | 58 | 49 | 0.0 | 0.0 | 0.00 | 0.22 | 0.00 | 93 | 1010.3 |
| 20260509093508 | 58 | 49 | 0.0 | 0.0 | 0.00 | 0.22 | 0.00 | 93 | 1010.3 |
| 20260509093030 | 58 | 49 | 0.0 | 0.0 | 0.00 | 0.22 | 0.00 | 93 | 1010.3 |
| 20260509092506 | 58 | 49 | 0.0 | 0.0 | 0.00 | 0.22 | 0.00 | 93 | 1010.4 |
| 20260509092011 | 58 | 49 | 0.0 | 0.0 | 0.00 | 0.22 | 0.00 | 93 | 1010.4 |
| 20260509091523 | 58 | 49 | 0.0 | 0.0 | 0.00 | 0.22 | 0.00 | 93 | 1010.3 |
| 20260509091008 | 58 | 49 | 0.0 | 0.0 | 0.00 | 0.22 | 0.00 | 92 | 1010.3 |
| 20260509090507 | 59 | 49 | 0.0 | 0.0 | 0.00 | 0.22 | 0.00 | 93 | 1010.4 |
| 20260509090028 | 59 | 49 | 0.0 | 0.0 | 0.00 | 0.22 | 0.00 | 92 | 1010.4 |
| 20260509085508 | 59 | 49 | 0.0 | 0.0 | 0.00 | 0.22 | 0.00 | 93 | 1010.4 |
| 20260509085007 | 59 | 49 | 0.0 | 0.0 | 0.00 | 0.22 | 0.00 | 93 | 1010.3 |
| 20260509084535 | 59 | 49 | 0.0 | 2.0 | 0.00 | 0.22 | 0.00 | 93 | 1010.3 |
| 20260509084009 | 59 | 49 | 0.0 | 2.0 | 0.00 | 0.22 | 0.00 | 93 | 1010.4 |
| 20260509083516 | 59 | 49 | 0.0 | 2.0 | 0.00 | 0.22 | 0.00 | 92 | 1010.4 |
| 20260509083029 | 59 | 49 | 0.0 | 0.0 | 0.00 | 0.22 | 0.00 | 92 | 1010.5 |
| 20260509082511 | 60 | 49 | 0.0 | 0.0 | 0.00 | 0.22 | 0.00 | 92 | 1010.6 |
| 20260509082012 | 60 | 49 | 0.0 | 0.0 | 0.00 | 0.22 | 0.00 | 92 | 1010.6 |
| 20260509081536 | 60 | 49 | 0.0 | 0.0 | 0.00 | 0.22 | 0.00 | 92 | 1010.6 |
| 20260509081015 | 60 | 49 | 0.0 | 0.0 | 0.00 | 0.22 | 0.00 | 92 | 1010.7 |
| 20260509080507 | 60 | 49 | 0.0 | 0.0 | 0.00 | 0.22 | 0.00 | 92 | 1010.7 |
| 20260509080027 | 60 | 49 | 0.0 | 0.0 | 0.00 | 0.22 | 0.00 | 92 | 1010.7 |
| 20260509075515 | 60 | 49 | 0.0 | 0.0 | 0.00 | 0.22 | 0.00 | 92 | 1010.8 |
| 20260509075009 | 60 | 49 | 0.0 | 0.0 | 0.00 | 0.22 | 0.00 | 92 | 1010.8 |
| 20260509074529 | 60 | 49 | 0.0 | 0.0 | 0.00 | 0.22 | 0.00 | 92 | 1010.9 |
| 20260509074010 | 60 | 49 | 0.0 | 0.0 | 0.00 | 0.22 | 0.00 | 92 | 1010.9 |
| 20260509073509 | 60 | 49 | 0.0 | 0.0 | 0.00 | 0.22 | 0.00 | 91 | 1010.9 |
| 20260509073032 | 60 | 49 | 0.0 | 0.0 | 0.00 | 0.22 | 0.00 | 91 | 1010.9 |
| 20260509072520 | 60 | 49 | 0.0 | 0.0 | 0.00 | 0.22 | 0.00 | 91 | 1011.1 |
| 20260509072013 | 60 | 49 | 0.0 | 2.0 | 0.00 | 0.22 | 0.00 | 91 | 1011.1 |
| 20260509071527 | 61 | 49 | 0.0 | 2.0 | 0.00 | 0.22 | 0.00 | 91 | 1010.9 |
| 20260509071011 | 60 | 49 | 0.0 | 2.0 | 0.00 | 0.22 | 0.00 | 91 | 1010.9 |
| 20260509070507 | 61 | 49 | 0.0 | 2.0 | 0.00 | 0.22 | 0.00 | 91 | 1010.9 |
| 20260509070031 | 61 | 49 | 0.0 | 2.0 | 0.00 | 0.22 | 0.00 | 91 | 1011.0 |
| 20260509065507 | 61 | 49 | 0.0 | 0.0 | 0.00 | 0.22 | 0.00 | 90 | 1011.1 |
| 20260509065009 | 61 | 49 | 0.0 | 0.0 | 0.00 | 0.22 | 0.00 | 90 | 1011.2 |
| 20260509064528 | 61 | 49 | 0.0 | 0.0 | 0.00 | 0.22 | 0.00 | 90 | 1011.3 |
| 20260509064003 | 61 | 49 | 0.0 | 0.0 | 0.00 | 0.22 | 0.00 | 90 | 1011.3 |
| 20260509063502 | 61 | 49 | 0.0 | 2.0 | 0.00 | 0.22 | 0.00 | 89 | 1011.3 |
| 20260509063005 | 61 | 49 | 0.0 | 3.0 | 0.00 | 0.22 | 0.00 | 89 | 1011.3 |
| 20260509062504 | 61 | 49 | 0.0 | 4.0 | 0.00 | 0.22 | 0.00 | 89 | 1011.3 |
| 20260509062004 | 62 | 49 | 1.0 | 4.0 | 0.00 | 0.22 | 0.00 | 89 | 1011.5 |
| 20260509061504 | 62 | 74 | 2.0 | 3.0 | 0.00 | 0.22 | 0.00 | 89 | 1011.5 |
| 20260509061005 | 62 | 60 | 1.0 | 3.0 | 0.00 | 0.22 | 0.00 | 89 | 1011.6 |
| 20260509060505 | 62 | 9 | 0.0 | 2.0 | 0.00 | 0.22 | 0.00 | 89 | 1011.6 |
| 20260509060007 | 62 | 9 | 0.0 | 3.0 | 0.00 | 0.22 | 0.00 | 89 | 1011.6 |
| 20260509055504 | 62 | 9 | 1.0 | 3.0 | 0.00 | 0.22 | 0.00 | 89 | 1011.7 |
| 20260509055005 | 62 | 360 | 1.0 | 4.0 | 0.00 | 0.22 | 0.00 | 89 | 1011.7 |
| 20260509054510 | 62 | 14 | 1.0 | 4.0 | 0.00 | 0.22 | 0.00 | 88 | 1011.6 |
| 20260509054004 | 62 | 69 | 1.0 | 4.0 | 0.00 | 0.22 | 0.00 | 88 | 1011.7 |
| 20260509053504 | 62 | 5 | 0.0 | 4.0 | 0.00 | 0.22 | 0.00 | 88 | 1011.6 |
| 20260509053013 | 62 | 5 | 1.0 | 7.0 | 0.00 | 0.22 | 0.00 | 89 | 1011.5 |
| 20260509052504 | 62 | 342 | 2.0 | 7.0 | 0.00 | 0.22 | 0.00 | 89 | 1011.4 |
| 20260509052002 | 62 | 342 | 2.0 | 6.0 | 0.00 | 0.22 | 0.00 | 90 | 1011.1 |
| 20260509051504 | 62 | 32 | 1.0 | 4.0 | 0.00 | 0.22 | 0.00 | 90 | 1010.8 |
| 20260509051004 | 62 | 67 | 1.0 | 4.0 | 0.00 | 0.22 | 0.00 | 90 | 1010.7 |
| 20260509050504 | 62 | 344 | 1.0 | 4.0 | 0.00 | 0.22 | 0.00 | 90 | 1010.4 |
| 20260509050015 | 62 | 17 | 1.0 | 3.0 | 0.00 | 0.22 | 0.00 | 90 | 1010.2 |
| 20260509045502 | 62 | 352 | 1.0 | 4.0 | 0.00 | 0.22 | 0.22 | 90 | 1009.9 |
| 20260509045003 | 62 | 76 | 1.0 | 5.0 | 0.00 | 0.22 | 0.22 | 90 | 1009.9 |
| 20260509044506 | 62 | 38 | 1.0 | 5.0 | 0.00 | 0.22 | 0.22 | 90 | 1010.1 |
| 20260509044004 | 62 | 37 | 2.0 | 5.0 | 0.00 | 0.22 | 0.22 | 90 | 1010.2 |
| 20260509043504 | 62 | 32 | 1.0 | 3.0 | 0.00 | 0.22 | 0.22 | 90 | 1010.3 |
| 20260509043005 | 62 | 73 | 1.0 | 4.0 | 0.00 | 0.22 | 0.22 | 90 | 1010.3 |
| 20260509042504 | 62 | 83 | 0.0 | 4.0 | 0.00 | 0.22 | 0.22 | 90 | 1010.3 |
| 20260509042005 | 62 | 75 | 2.0 | 3.0 | 0.00 | 0.22 | 0.22 | 90 | 1010.3 |
| 20260509041507 | 62 | 173 | 0.0 | 2.0 | 0.00 | 0.22 | 0.22 | 90 | 1010.3 |
| 20260509041003 | 62 | 173 | 0.0 | 1.0 | 0.00 | 0.22 | 0.22 | 90 | 1010.3 |
| 20260509040508 | 62 | 173 | 0.0 | 0.0 | 0.00 | 0.22 | 0.22 | 90 | 1010.3 |
| 20260509040006 | 62 | 173 | 0.0 | 0.0 | 0.00 | 0.22 | 0.22 | 90 | 1010.2 |
| 20260509035503 | 62 | 173 | 0.0 | 0.0 | 0.00 | 0.22 | 0.22 | 90 | 1010.2 |
| 20260509035006 | 62 | 173 | 0.0 | 0.0 | 0.00 | 0.22 | 0.22 | 90 | 1010.3 |
| 20260509034504 | 62 | 173 | 0.0 | 0.0 | 0.00 | 0.22 | 0.22 | 90 | 1010.3 |
| 20260509034004 | 63 | 173 | 0.0 | 0.0 | 0.00 | 0.22 | 0.22 | 90 | 1010.3 |
| 20260509033503 | 63 | 173 | 0.0 | 0.0 | 0.00 | 0.22 | 0.22 | 90 | 1010.2 |
| 20260509033004 | 63 | 173 | 0.0 | 0.0 | 0.00 | 0.22 | 0.22 | 90 | 1010.1 |
| 20260509032504 | 62 | 173 | 0.0 | 0.0 | 0.00 | 0.22 | 0.22 | 90 | 1010.1 |
| 20260509032004 | 62 | 173 | 0.0 | 0.0 | 0.00 | 0.22 | 0.22 | 90 | 1010.2 |
| 20260509031506 | 62 | 173 | 0.0 | 1.0 | 0.00 | 0.22 | 0.22 | 90 | 1010.1 |
| 20260509031004 | 63 | 173 | 0.0 | 2.0 | 0.00 | 0.22 | 0.22 | 90 | 1010.1 |
| 20260509030504 | 63 | 173 | 0.0 | 2.0 | 0.00 | 0.22 | 0.22 | 90 | 1010.0 |
| 20260509030021 | 63 | 173 | 0.0 | 2.0 | 0.00 | 0.22 | 0.22 | 90 | 1010.1 |
| 20260509025503 | 63 | 173 | 1.0 | 2.0 | 0.00 | 0.22 | 0.22 | 90 | 1010.1 |
| 20260509025003 | 63 | 173 | 0.0 | 2.0 | 0.00 | 0.22 | 0.22 | 90 | 1009.9 |
| 20260509024508 | 63 | 173 | 0.0 | 2.0 | 0.00 | 0.22 | 0.22 | 90 | 1009.7 |
| 20260509024003 | 63 | 173 | 0.0 | 4.0 | 0.00 | 0.22 | 0.22 | 90 | 1009.5 |
| 20260509023503 | 64 | 173 | 0.0 | 4.0 | 0.00 | 0.22 | 0.22 | 90 | 1009.4 |
| 20260509023016 | 64 | 162 | 1.0 | 4.0 | 0.00 | 0.22 | 0.22 | 90 | 1009.4 |
| 20260509022504 | 64 | 162 | 0.0 | 4.0 | 0.00 | 0.22 | 0.22 | 89 | 1009.4 |
| 20260509022002 | 64 | 162 | 0.0 | 4.0 | 0.00 | 0.22 | 0.22 | 89 | 1009.3 |
| 20260509021508 | 63 | 352 | 1.0 | 2.0 | 0.00 | 0.22 | 0.22 | 89 | 1009.2 |
| 20260509021005 | 64 | 352 | 0.0 | 2.0 | 0.00 | 0.22 | 0.22 | 89 | 1009.4 |
| 20260509020503 | 63 | 352 | 0.0 | 3.0 | 0.00 | 0.22 | 0.22 | 89 | 1008.8 |
| 20260509020007 | 64 | 352 | 1.0 | 3.0 | 0.00 | 0.22 | 0.22 | 89 | 1009.0 |
| 20260509015503 | 64 | 158 | 0.0 | 2.0 | 0.00 | 0.22 | 0.22 | 88 | 1008.9 |
| 20260509015004 | 64 | 158 | 0.0 | 2.0 | 0.00 | 0.22 | 0.22 | 88 | 1009.1 |
| 20260509014508 | 64 | 158 | 0.0 | 2.0 | 0.00 | 0.22 | 0.22 | 87 | 1009.0 |
| 20260509014003 | 64 | 158 | 0.0 | 2.0 | 0.00 | 0.22 | 0.22 | 87 | 1009.1 |
| 20260509013503 | 64 | 158 | 0.0 | 2.0 | 0.00 | 0.22 | 0.22 | 87 | 1009.0 |
| 20260509013007 | 64 | 158 | 0.0 | 3.0 | 0.00 | 0.22 | 0.22 | 86 | 1008.8 |
| 20260509012503 | 64 | 158 | 1.0 | 3.0 | 0.00 | 0.22 | 0.22 | 86 | 1008.5 |
| 20260509012003 | 64 | 158 | 0.0 | 3.0 | 0.00 | 0.22 | 0.22 | 86 | 1008.3 |
| 20260509011508 | 64 | 158 | 0.0 | 3.0 | 0.00 | 0.22 | 0.22 | 87 | 1008.1 |
| 20260509011005 | 64 | 146 | 0.0 | 6.0 | 0.01 | 0.22 | 0.22 | 87 | 1008.1 |
| 20260509010507 | 64 | 170 | 3.0 | 6.0 | 0.05 | 0.22 | 0.22 | 87 | 1008.0 |
| 20260509010013 | 64 | 129 | 1.0 | 3.0 | 0.12 | 0.22 | 0.22 | 87 | 1007.8 |
| 20260509005504 | 64 | 122 | 1.0 | 3.0 | 0.22 | 0.22 | 0.22 | 87 | 1007.9 |
| 20260509005004 | 63 | 58 | 1.0 | 5.0 | 0.22 | 0.22 | 0.22 | 87 | 1007.9 |
| 20260509004509 | 63 | 148 | 2.0 | 5.0 | 0.22 | 0.22 | 0.22 | 88 | 1008.1 |
| 20260509004004 | 63 | 129 | 1.0 | 3.0 | 0.22 | 0.22 | 0.22 | 87 | 1008.0 |
| 20260509003504 | 63 | 148 | 1.0 | 4.0 | 0.22 | 0.22 | 0.22 | 87 | 1008.1 |
| 20260509003009 | 63 | 160 | 1.0 | 4.0 | 0.22 | 0.22 | 0.22 | 86 | 1007.8 |
| 20260509002508 | 63 | 131 | 1.0 | 6.0 | 0.22 | 0.22 | 0.22 | 86 | 1007.9 |
| 20260509002004 | 63 | 126 | 1.0 | 6.0 | 0.22 | 0.22 | 0.22 | 85 | 1007.9 |
| 20260509001508 | 63 | 9 | 0.0 | 8.0 | 0.22 | 0.22 | 0.22 | 86 | 1007.6 |
| 20260509001004 | 63 | 11 | 0.0 | 11.0 | 0.21 | 0.21 | 0.21 | 86 | 1007.6 |
| 20260509000509 | 64 | 79 | 2.0 | 20.0 | 0.17 | 0.17 | 0.17 | 85 | 1008.5 |
| 20260509000012 | 65 | 329 | 5.0 | 20.0 | 0.10 | 0.10 | 0.10 | 82 | 1008.5 |
| 20260508235507 | 68 | 258 | 8.0 | 17.0 | 0.00 | 0.00 | 0.00 | 72 | 1009.1 |
| 20260508235004 | 69 | 277 | 2.0 | 17.0 | 0.00 | 0.00 | 0.00 | 70 | 1007.9 |
| 20260508234509 | 69 | 330 | 2.0 | 17.0 | 0.00 | 0.00 | 0.00 | 69 | 1007.4 |
| 20260508234003 | 70 | 60 | 8.0 | 17.0 | 0.00 | 0.00 | 0.00 | 67 | 1008.2 |
| 20260508233507 | 77 | 28 | 8.0 | 14.0 | 0.00 | 0.00 | 0.00 | 56 | 1007.9 |
| 20260508233012 | 79 | 244 | 2.0 | 10.0 | 0.00 | 0.00 | 0.00 | 55 | 1006.1 |
| 20260508232504 | 80 | 236 | 3.0 | 10.0 | 0.00 | 0.00 | 0.00 | 54 | 1005.8 |
| 20260508232007 | 80 | 194 | 2.0 | 10.0 | 0.00 | 0.00 | 0.00 | 53 | 1005.9 |
| 20260508231512 | 80 | 173 | 4.0 | 8.0 | 0.00 | 0.00 | 0.00 | 52 | 1006.2 |
| 20260508231004 | 81 | 229 | 3.0 | 8.0 | 0.00 | 0.00 | 0.00 | 51 | 1006.4 |
| 20260508230504 | 81 | 163 | 1.0 | 12.0 | 0.00 | 0.00 | 0.00 | 51 | 1006.5 |
| 20260508230012 | 82 | 314 | 2.0 | 12.0 | 0.00 | 0.00 | 0.00 | 51 | 1006.6 |
| 20260508225510 | 82 | 206 | 2.0 | 9.0 | 0.00 | 0.00 | 0.00 | 50 | 1006.5 |
| 20260508225004 | 82 | 181 | 4.0 | 12.0 | 0.00 | 0.00 | 0.00 | 49 | 1006.2 |
| 20260508224512 | 83 | 237 | 5.0 | 14.0 | 0.00 | 0.00 | 0.00 | 48 | 1006.2 |
| 20260508224006 | 83 | 165 | 3.0 | 14.0 | 0.00 | 0.00 | 0.00 | 49 | 1006.5 |
| 20260508223509 | 83 | 187 | 3.0 | 10.0 | 0.00 | 0.00 | 0.00 | 50 | 1006.5 |
| 20260508223017 | 83 | 127 | 4.0 | 9.0 | 0.00 | 0.00 | 0.00 | 48 | 1006.5 |
| 20260508222505 | 84 | 301 | 2.0 | 10.0 | 0.00 | 0.00 | 0.00 | 49 | 1006.6 |
| 20260508222005 | 84 | 197 | 2.0 | 11.0 | 0.00 | 0.00 | 0.00 | 49 | 1006.7 |
| 20260508221513 | 84 | 229 | 3.0 | 10.0 | 0.00 | 0.00 | 0.00 | 48 | 1006.7 |
| 20260508221005 | 84 | 228 | 2.0 | 10.0 | 0.00 | 0.00 | 0.00 | 48 | 1006.6 |
| 20260508220506 | 84 | 178 | 4.0 | 14.0 | 0.00 | 0.00 | 0.00 | 49 | 1006.8 |
| 20260508220017 | 83 | 234 | 2.0 | 14.0 | 0.00 | 0.00 | 0.00 | 48 | 1006.8 |
| 20260508215509 | 83 | 217 | 3.0 | 12.0 | 0.00 | 0.00 | 0.00 | 49 | 1006.9 |
| 20260508215007 | 83 | 256 | 4.0 | 12.0 | 0.00 | 0.00 | 0.00 | 48 | 1007.1 |
| 20260508214515 | 84 | 71 | 3.0 | 9.0 | 0.00 | 0.00 | 0.00 | 50 | 1007.3 |
| 20260508214004 | 84 | 198 | 2.0 | 9.0 | 0.00 | 0.00 | 0.00 | 49 | 1007.4 |
| 20260508213505 | 83 | 177 | 2.0 | 10.0 | 0.00 | 0.00 | 0.00 | 50 | 1007.5 |
| 20260508213014 | 83 | 250 | 4.0 | 10.0 | 0.00 | 0.00 | 0.00 | 49 | 1007.6 |
| 20260508212509 | 83 | 173 | 3.0 | 11.0 | 0.00 | 0.00 | 0.00 | 49 | 1007.6 |
| 20260508212007 | 83 | 180 | 2.0 | 11.0 | 0.00 | 0.00 | 0.00 | 49 | 1007.7 |
| 20260508211524 | 83 | 218 | 1.0 | 9.0 | 0.00 | 0.00 | 0.00 | 50 | 1007.7 |
| 20260508211006 | 82 | 298 | 5.0 | 9.0 | 0.00 | 0.00 | 0.00 | 49 | 1007.9 |
| 20260508210506 | 83 | 167 | 3.0 | 10.0 | 0.00 | 0.00 | 0.00 | 49 | 1007.9 |
| 20260508210017 | 84 | 224 | 4.0 | 9.0 | 0.00 | 0.00 | 0.00 | 48 | 1008.0 |
| 20260508205507 | 83 | 242 | 2.0 | 9.0 | 0.00 | 0.00 | 0.00 | 50 | 1008.1 |
| 20260508205005 | 83 | 184 | 2.0 | 13.0 | 0.00 | 0.00 | 0.00 | 54 | 1008.1 |
| 20260508204514 | 81 | 236 | 6.0 | 13.0 | 0.00 | 0.00 | 0.00 | 51 | 1008.2 |
| 20260508204007 | 82 | 223 | 4.0 | 10.0 | 0.00 | 0.00 | 0.00 | 48 | 1008.2 |
| 20260508203506 | 83 | 152 | 4.0 | 10.0 | 0.00 | 0.00 | 0.00 | 49 | 1008.2 |
| 20260508203017 | 83 | 241 | 2.0 | 10.0 | 0.00 | 0.00 | 0.00 | 51 | 1008.3 |
| 20260508202506 | 82 | 254 | 4.0 | 10.0 | 0.00 | 0.00 | 0.00 | 48 | 1008.3 |
| 20260508202005 | 83 | 164 | 3.0 | 11.0 | 0.00 | 0.00 | 0.00 | 50 | 1008.3 |